When you browse on this site, cookies collect data to enhance your experience and personalize the content and advertising you see.
Visit our Privacy Policy to learn more. By continuing to use the site, you agree to this use of cookies and data.
  • In Spain
  • List of Countries
  • For 7 days
  • Water Temperature
  • Weather Map
  • Weather Widgets
  • user-avatar
    Login

    Hourly Weather Karaganda

    Today, 21 September, Saturday

    Time Temperature Precipitation Wind Pressure Humidity
    00:00 +13°C° 0 mm 2 mps 713 mmHg 34%
    01:00 +12°C° 0 mm 2 mps 713 mmHg 35%
    02:00 +12°C° 0 mm 2 mps 713 mmHg 37%
    03:00 +10°C° 0 mm 2 mps 713 mmHg 38%
    04:00 +10°C° 0 mm 2 mps 713 mmHg 40%
    05:00 +11°C° 0 mm 1 mps 713 mmHg 44%
    06:00 +12°C° 0 mm 1 mps 713 mmHg 42%
    07:00 +13°C° 0 mm 1 mps 713 mmHg 39%
    08:00 +14°C° 0 mm 2 mps 714 mmHg 37%
    09:00 +16°C° 0 mm 1 mps 714 mmHg 33%
    10:00 +18°C° 0 mm 1 mps 714 mmHg 29%
    11:00 +20°C° 0 mm 1 mps 714 mmHg 24%
    12:00 +21°C° 0 mm 1 mps 714 mmHg 23%
    13:00 +22°C° 0 mm 1 mps 713 mmHg 21%
    14:00 +23°C° 0 mm 1 mps 713 mmHg 19%
    15:00 +23°C° 0 mm 1 mps 713 mmHg 21%
    16:00 +23°C° 0 mm 1 mps 713 mmHg 22%
    17:00 +23°C° 0 mm 2 mps 712 mmHg 24%
    18:00 +21°C° 0 mm 2 mps 712 mmHg 25%
    19:00 +19°C° 0 mm 3 mps 712 mmHg 26%
    20:00 +18°C° 0 mm 4 mps 711 mmHg 28%
    21:00 +18°C° 0 mm 4 mps 711 mmHg 29%
    22:00 +18°C° 0 mm 4 mps 710 mmHg 30%
    23:00 +17°C° 0 mm 5 mps 710 mmHg 31%

    Tomorrow, 22 September, Sunday

    Time Temperature Precipitation Wind Pressure Humidity
    00:00 +17°C° 0 mm 5 mps 709 mmHg 31%
    01:00 +17°C° 0 mm 5 mps 709 mmHg 32%
    02:00 +17°C° 0 mm 6 mps 708 mmHg 33%
    03:00 +17°C° 0 mm 6 mps 708 mmHg 33%
    04:00 +17°C° 0 mm 7 mps 707 mmHg 34%
    05:00 +17°C° 0 mm 7 mps 707 mmHg 34%
    06:00 +18°C° 0 mm 8 mps 707 mmHg 33%
    07:00 +21°C° 0 mm 10 mps 707 mmHg 32%
    08:00 +22°C° 0 mm 11 mps 706 mmHg 30%
    09:00 +24°C° 0 mm 11 mps 706 mmHg 27%
    10:00 +27°C° 0 mm 12 mps 706 mmHg 23%
    11:00 +29°C° 0 mm 12 mps 705 mmHg 20%
    12:00 +31°C° 0 mm 12 mps 705 mmHg 19%
    13:00 +32°C° 0 mm 12 mps 704 mmHg 18%
    14:00 +33°C° 0 mm 12 mps 704 mmHg 17%
    15:00 +32°C° 0 mm 10 mps 703 mmHg 17%
    16:00 +32°C° 0 mm 8 mps 702 mmHg 17%
    17:00 +30°C° 0 mm 6 mps 702 mmHg 18%
    18:00 +29°C° 0 mm 6 mps 702 mmHg 18%
    19:00 +27°C° 0 mm 6 mps 702 mmHg 18%
    20:00 +26°C° 0 mm 6 mps 702 mmHg 18%
    21:00 +22°C° 0 mm 7 mps 702 mmHg 34%
    22:00 +18°C° 0 mm 7 mps 702 mmHg 50%
    23:00 +15°C° 0 mm 7 mps 702 mmHg 67%

    Day after tomorrow, 23 September, Monday

    Time Temperature Precipitation Wind Pressure Humidity
    00:00 +14°C° 0.1 mm 7 mps 703 mmHg 71%
    01:00 +12°C° 0.1 mm 7 mps 703 mmHg 75%
    02:00 +11°C° 0.1 mm 7 mps 704 mmHg 80%
    03:00 +10°C° 1.4 mm 7 mps 705 mmHg 78%
    04:00 +9°C° 1.4 mm 7 mps 706 mmHg 76%
    05:00 +9°C° 1.4 mm 7 mps 707 mmHg 75%
    06:00 +9°C° 0 mm 7 mps 708 mmHg 69%
    07:00 +9°C° 0 mm 7 mps 709 mmHg 64%
    08:00 +9°C° 0 mm 7 mps 710 mmHg 59%
    09:00 +10°C° 0 mm 6 mps 711 mmHg 52%
    10:00 +11°C° 0 mm 6 mps 712 mmHg 45%
    11:00 +13°C° 0 mm 6 mps 713 mmHg 38%
    12:00 +14°C° 0 mm 6 mps 713 mmHg 35%
    13:00 +15°C° 0 mm 6 mps 713 mmHg 31%
    14:00 +15°C° 0 mm 7 mps 713 mmHg 27%
    15:00 +15°C° 0 mm 7 mps 713 mmHg 27%
    16:00 +15°C° 0 mm 7 mps 712 mmHg 27%
    17:00 +15°C° 0 mm 7 mps 712 mmHg 28%
    18:00 +14°C° 0 mm 6 mps 712 mmHg 29%
    19:00 +13°C° 0 mm 5 mps 712 mmHg 31%
    20:00 +12°C° 0 mm 4 mps 712 mmHg 32%
    21:00 +12°C° 0 mm 5 mps 711 mmHg 32%
    22:00 +12°C° 0 mm 5 mps 711 mmHg 31%
    23:00 +10°C° 0 mm 6 mps 710 mmHg 31%

    24 September, Tuesday

    Time Temperature Precipitation Wind Pressure Humidity
    00:00 +10°C° 0 mm 6 mps 710 mmHg 31%
    01:00 +10°C° 0 mm 6 mps 710 mmHg 31%
    02:00 +10°C° 0 mm 7 mps 709 mmHg 31%
    03:00 +10°C° 0 mm 7 mps 709 mmHg 32%
    04:00 +10°C° 0 mm 7 mps 709 mmHg 32%
    05:00 +10°C° 0 mm 7 mps 709 mmHg 33%
    06:00 +10°C° 0 mm 8 mps 709 mmHg 38%
    07:00 +11°C° 0 mm 8 mps 710 mmHg 42%
    08:00 +11°C° 0 mm 9 mps 710 mmHg 47%
    09:00 +12°C° 0 mm 9 mps 710 mmHg 48%
    10:00 +13°C° 0 mm 10 mps 710 mmHg 50%
    11:00 +13°C° 0 mm 10 mps 711 mmHg 51%
    12:00 +13°C° 0 mm 10 mps 711 mmHg 45%
    13:00 +13°C° 0 mm 10 mps 711 mmHg 38%
    14:00 +13°C° 0 mm 10 mps 711 mmHg 32%
    15:00 +13°C° 0 mm 9 mps 711 mmHg 30%
    16:00 +12°C° 0 mm 8 mps 711 mmHg 27%
    17:00 +11°C° 0 mm 7 mps 712 mmHg 25%
    18:00 +10°C° 0 mm 6 mps 712 mmHg 29%
    19:00 +8°C° 0 mm 4 mps 712 mmHg 33%
    20:00 +7°C° 0 mm 2 mps 713 mmHg 37%
    21:00 +7°C° 0 mm 2 mps 713 mmHg 39%
    22:00 +7°C° 0 mm 1 mps 713 mmHg 41%
    23:00 +7°C° 0 mm 1 mps 713 mmHg 43%

    25 September, Wednesday

    Time Temperature Precipitation Wind Pressure Humidity
    00:00 +6°C° 0 mm 1 mps 713 mmHg 45%
    01:00 +5°C° 0 mm 1 mps 713 mmHg 46%
    02:00 +5°C° 0 mm 1 mps 713 mmHg 48%
    03:00 +4°C° 0 mm 1 mps 713 mmHg 49%
    04:00 +4°C° 0 mm 1 mps 713 mmHg 49%
    05:00 +4°C° 0 mm 1 mps 714 mmHg 50%
    06:00 +5°C° 0 mm 1 mps 714 mmHg 47%
    07:00 +6°C° 0 mm 1 mps 714 mmHg 43%
    08:00 +7°C° 0 mm 1 mps 715 mmHg 39%
    09:00 +8°C° 0 mm 2 mps 715 mmHg 35%
    10:00 +9°C° 0 mm 2 mps 715 mmHg 32%
    11:00 +10°C° 0 mm 3 mps 715 mmHg 28%
    12:00 +10°C° 0 mm 3 mps 715 mmHg 26%
    13:00 +11°C° 0 mm 4 mps 714 mmHg 24%
    14:00 +11°C° 0 mm 4 mps 714 mmHg 22%
    15:00 +11°C° 0 mm 4 mps 714 mmHg 22%
    16:00 +11°C° 0 mm 4 mps 714 mmHg 23%
    17:00 +11°C° 0 mm 4 mps 714 mmHg 23%
    18:00 +9°C° 0 mm 3 mps 714 mmHg 26%
    19:00 +7°C° 0 mm 2 mps 714 mmHg 29%
    20:00 +7°C° 0 mm 1 mps 714 mmHg 33%
    21:00 +6°C° 0 mm 1 mps 714 mmHg 33%
    22:00 +6°C° 0 mm 1 mps 714 mmHg 34%
    23:00 +6°C° 0 mm 1 mps 714 mmHg 35%

    26 September, Thursday

    Time Temperature Precipitation Wind Pressure Humidity
    00:00 +5°C° 0 mm 1 mps 714 mmHg 38%
    01:00 +4°C° 0 mm 1 mps 714 mmHg 42%
    02:00 +4°C° 0 mm 1 mps 714 mmHg 46%
    03:00 +3°C° 0 mm 1 mps 714 mmHg 49%
    04:00 +3°C° 0 mm 1 mps 714 mmHg 53%
    05:00 +1°C° 0 mm 0 mps 714 mmHg 57%
    06:00 +3°C° 0 mm 0 mps 714 mmHg 51%
    07:00 +5°C° 0 mm 1 mps 715 mmHg 45%
    08:00 +7°C° 0 mm 1 mps 715 mmHg 39%
    09:00 +8°C° 0 mm 2 mps 715 mmHg 35%
    10:00 +9°C° 0 mm 3 mps 715 mmHg 32%
    11:00 +10°C° 0 mm 4 mps 715 mmHg 28%
    12:00 +11°C° 0 mm 4 mps 715 mmHg 27%
    13:00 +12°C° 0 mm 5 mps 715 mmHg 25%
    14:00 +13°C° 0 mm 5 mps 714 mmHg 24%
    15:00 +13°C° 0 mm 5 mps 714 mmHg 24%
    16:00 +12°C° 0 mm 4 mps 713 mmHg 25%
    17:00 +12°C° 0 mm 4 mps 713 mmHg 26%
    18:00 +11°C° 0 mm 3 mps 713 mmHg 29%
    19:00 +9°C° 0 mm 3 mps 713 mmHg 32%
    20:00 +8°C° 0 mm 2 mps 712 mmHg 35%
    21:00 +8°C° 0 mm 2 mps 712 mmHg 36%
    22:00 +8°C° 0 mm 3 mps 712 mmHg 37%
    23:00 +8°C° 0 mm 3 mps 711 mmHg 38%
    Show more